Wind_Speed
21 21 20 19 19 19 18 17 16 15 14 12 10 10 11 10 9 9 12 14 15 15 14 15 14 13 13 14 14 15 17 18 19 21 22 22 23 24 25 25 25 24
21 20 19 19 18 17 16 15 13 13 12 10 10 10 9 8 8 10 13 15 16 15 14 14 13 12 12 12 15 17 18 18 19 20 22 22 22 24 25 26 26 26
19 18 18 17 16 16 15 13 11 10 10 10 10 9 8 9 11 13 15 15 14 13 13 14 14 13 12 12 15 17 17 18 19 19 21 22 22 24 25 26 27 28
18 17 16 15 14 14 13 12 10 9 9 10 11 11 10 12 13 12 13 14 13 12 12 14 15 16 16 15 16 17 16 17 18 18 20 23 22 22 25 26 27 28
18 16 14 14 13 13 13 12 11 9 10 12 13 12 10 11 12 11 12 14 13 13 12 13 14 15 16 17 17 16 16 17 17 17 21 23 22 22 24 26 27 28
18 17 16 16 15 14 14 13 12 12 13 14 12 9 8 9 11 13 14 14 14 14 14 15 14 12 12 15 16 15 16 17 16 18 21 23 23 23 24 26 27 28
20 18 18 18 17 16 15 13 13 14 14 12 9 9 9 11 12 14 15 15 14 14 15 15 14 12 11 12 14 16 17 16 16 19 21 22 23 24 24 25 27 28
21 20 19 18 18 17 15 15 15 15 13 11 11 11 12 13 13 15 15 15 14 13 13 13 14 14 14 14 15 17 17 17 17 19 21 21 22 23 23 23 26 28
21 20 18 17 16 15 15 16 16 14 12 11 11 13 14 15 15 16 16 14 13 14 13 14 16 16 15 15 16 17 18 19 19 19 20 20 21 22 21 21 23 26
20 19 17 16 16 16 16 17 16 13 12 11 12 15 16 15 15 16 15 13 13 14 15 17 18 17 17 16 16 17 20 20 20 20 19 18 20 21 21 21 22 24
20 19 19 17 17 18 18 18 16 13 12 12 15 18 17 16 15 14 13 12 12 14 15 17 18 18 18 18 18 20 20 20 19 19 19 18 18 20 22 23 22 23
21 21 20 19 18 19 18 17 15 13 13 15 16 17 17 15 14 12 12 13 15 16 17 18 18 18 18 19 19 20 20 20 19 19 19 19 18 19 21 23 22 22
23 22 21 19 19 19 18 17 16 15 15 17 16 16 16 15 14 14 15 17 18 19 19 19 19 19 19 19 19 19 19 20 20 20 19 19 19 19 20 21 21 22
23 22 21 20 20 21 19 18 16 16 17 17 16 15 15 15 15 17 18 19 20 20 21 20 20 20 19 18 18 18 18 19 19 19 19 20 20 20 20 20 19 20
24 24 23 23 22 20 17 17 17 19 19 18 17 17 16 16 17 18 20 20 20 21 21 21 20 20 18 17 17 17 18 18 18 18 18 20 21 21 21 19 17 18
26 25 25 24 21 17 17 19 21 22 22 21 20 19 18 17 18 20 21 21 21 22 22 22 21 20 17 16 15 16 16 16 17 17 18 19 20 21 21 20 19 19
27 27 26 24 20 19 21 22 22 23 23 23 21 20 18 18 19 21 21 21 22 22 23 23 22 20 17 16 15 15 15 16 16 17 18 19 20 21 22 22 22 22
30 29 28 24 22 22 22 22 22 23 23 22 21 20 19 18 19 21 21 21 22 22 23 23 22 20 19 19 19 19 19 19 20 20 21 21 21 23 24 25 24 24
29 29 27 25 24 24 24 23 23 23 22 22 21 20 19 19 19 20 20 20 21 22 22 22 21 19 19 19 21 22 23 24 25 25 25 25 25 25 26 27 26 25
26 27 26 26 26 25 25 24 24 23 23 22 21 20 20 19 18 19 19 19 20 21 21 20 19 19 18 18 18 19 22 24 26 27 27 27 27 27 28 28 28 27
25 24 26 28 27 26 25 25 25 24 23 22 22 21 20 19 18 18 18 19 19 19 19 18 17 17 17 17 16 16 18 21 24 25 26 27 27 27 28 28 28 28
25 25 27 29 28 26 26 26 26 25 23 23 23 22 20 19 17 16 16 17 17 17 17 16 15 15 17 18 17 16 16 18 21 23 24 26 26 27 28 28 28 27
26 27 29 29 29 28 27 26 26 25 24 23 23 22 21 20 18 15 15 15 15 15 15 15 14 15 16 17 17 16 16 18 19 20 22 23 24 25 26 27 27 27
29 30 29 29 29 28 28 27 26 25 24 23 24 24 22 21 19 17 15 14 14 14 13 13 14 15 14 16 17 16 16 17 18 19 20 20 22 24 25 25 26 26
32 30 29 29 29 28 28 27 26 26 25 24 23 22 21 20 19 18 17 15 14 14 13 13 14 15 14 16 18 18 17 17 18 19 20 19 19 21 22 23 24 24
31 29 29 29 29 29 28 27 26 26 25 23 22 21 21 20 18 17 16 15 14 15 14 13 14 15 15 16 17 18 17 17 17 18 19 18 17 18 20 21 22 22
Wind_Direction
136 137 133 126 120 121 125 128 129 127 121 115 106 95 90 93 94 81 75 79 82 77 70 68 66 63 66 64 61 58 56 57 51 46 49 49 46 44 40 37 35 33
137 136 133 126 121 122 127 129 129 124 116 106 98 97 97 105 110 101 93 88 83 77 70 70 74 71 65 62 65 64 59 57 55 51 51 48 47 47 43 40 39 38
138 137 134 129 124 124 128 131 127 118 113 106 104 108 108 109 110 105 100 94 86 83 79 78 79 69 60 65 70 68 63 60 61 57 52 48 49 49 45 43 43 41
137 136 132 130 128 128 129 132 130 127 125 124 126 127 118 108 104 99 104 103 91 85 84 80 75 64 64 73 74 69 67 67 66 60 50 47 50 50 47 44 43 40
134 132 130 131 133 132 131 131 134 139 143 142 142 139 124 106 94 92 109 112 92 79 85 85 76 69 71 74 73 70 71 71 68 58 49 48 49 51 48 44 42 40
128 128 129 132 134 133 131 131 136 143 147 147 144 138 128 113 102 102 111 109 90 79 86 89 82 78 76 74 74 73 73 74 68 56 51 50 49 50 49 46 45 44
127 129 131 132 135 135 131 130 138 144 145 138 122 115 125 126 117 111 109 103 92 89 93 90 83 80 79 78 78 76 76 76 67 57 54 52 51 51 50 49 48 46
130 132 133 132 133 134 132 135 143 144 138 123 107 106 119 126 122 116 114 109 103 103 103 96 88 84 82 80 79 78 78 75 66 60 58 56 56 55 52 49 48 46
134 134 134 135 135 135 137 143 149 145 134 124 114 112 117 122 123 121 121 118 110 107 107 103 97 91 84 78 76 79 81 76 68 64 63 61 61 60 55 51 49 46
135 135 139 141 139 136 139 144 146 139 130 124 120 119 120 122 124 125 125 123 113 106 106 105 101 95 88 79 76 82 85 80 75 71 70 67 64 61 57 53 51 48
137 139 142 142 137 136 141 143 141 136 127 122 121 121 121 123 125 127 127 122 113 107 105 105 103 98 91 82 79 84 83 78 75 73 72 70 67 61 55 54 54 50
141 142 142 143 144 147 150 149 147 143 131 126 127 122 119 122 123 122 120 117 113 109 105 104 103 99 93 87 84 85 84 80 78 76 72 70 68 63 55 52 53 51
142 143 143 147 153 152 151 150 150 147 134 128 129 124 120 122 121 118 116 114 111 107 104 104 104 101 96 91 87 86 87 84 80 79 76 71 69 66 60 54 50 48
144 146 147 148 150 149 149 151 150 143 135 132 130 124 120 120 120 120 117 114 110 106 104 104 104 101 98 95 92 90 89 86 82 80 78 74 70 67 64 59 52 47
147 148 147 149 153 155 155 151 141 135 132 130 126 121 118 118 120 122 119 115 110 106 104 104 101 98 97 97 97 97 95 92 89 85 81 78 74 69 65 62 59 53
149 148 149 157 163 160 150 141 134 131 129 126 122 120 118 119 121 121 119 115 111 108 106 103 98 95 96 99 102 103 102 100 96 90 87 83 77 71 66 63 63 60
152 150 155 162 160 148 142 138 133 131 128 125 123 122 121 122 123 121 119 116 114 112 108 103 98 96 96 98 102 105 106 104 99 94 89 83 78 74 69 66 64 62
155 156 161 161 155 149 145 140 134 131 129 126 124 124 123 123 123 122 121 119 118 115 111 106 103 100 97 92 92 97 100 98 94 90 85 80 77 74 71 68 66 63
161 162 164 162 157 151 146 141 137 133 131 129 127 127 126 123 124 125 124 123 122 118 114 111 108 107 104 95 89 89 91 91 89 85 81 77 74 72 70 68 66 64
168 164 160 156 153 147 142 140 138 134 132 132 130 129 127 123 125 128 127 125 125 121 118 115 111 110 111 104 95 89 86 86 85 82 79 75 72 71 70 69 67 65
173 164 155 151 149 146 143 140 138 135 134 133 131 129 127 125 127 130 130 128 127 125 122 117 112 113 116 112 105 97 89 84 82 80 77 74 73 73 72 71 70 68
172 161 151 149 148 146 143 140 138 137 136 135 132 129 128 128 128 131 134 133 132 131 127 118 112 115 121 121 115 106 96 88 83 80 76 74 74 76 75 73 71 70
166 156 150 149 148 145 142 140 139 139 139 138 135 131 130 130 129 130 135 139 140 139 132 122 111 112 123 130 126 116 103 95 90 85 80 77 78 78 77 75 73 70
158 153 150 149 148 145 143 141 140 141 142 141 139 135 133 133 131 129 129 137 143 142 138 128 112 106 118 132 134 127 114 103 98 94 88 83 82 81 79 77 75 72
154 153 151 149 147 146 144 142 142 143 143 143 142 138 134 133 133 129 127 133 142 143 141 132 116 106 111 124 130 129 121 111 106 101 95 89 85 83 81 78 76 72
154 154 153 150 148 147 145 145 145 145 145 144 141 137 134 134 134 132 131 135 141 145 143 135 120 109 107 117 125 126 123 119 112 106 100 95 89 85 83 80 75 72
Height
817 818 819 820 820 821 823 827 829 832 834 836 836 837 837 838 838 839 839 839 839 839 839 839 839 839 839 839 839 839 839 838 838 837 835 834 834 833 832 832 831 829
816 818 819 820 820 822 824 827 830 832 834 836 836 837 838 839 839 839 839 839 840 840 840 839 839 839 840 840 840 840 840 839 838 837 836 835 835 834 834 833 832 830
816 818 819 820 821 823 825 828 830 832 834 836 837 839 839 839 839 839 839 840 840 841 840 840 840 840 841 841 841 841 840 840 839 838 837 836 836 835 835 834 833 831
817 818 819 821 823 824 826 828 830 833 835 837 838 839 839 839 839 840 840 841 841 841 841 841 841 842 842 842 842 842 841 841 840 839 838 837 837 837 836 835 834 832
817 819 820 822 824 825 827 829 832 834 836 837 838 839 840 840 840 841 841 842 842 841 841 842 842 843 843 843 843 843 842 842 841 840 839 839 838 838 837 836 835 834
818 819 821 823 824 826 828 831 834 835 836 837 838 839 840 840 841 842 842 842 842 842 842 843 843 844 844 844 844 843 843 842 841 841 840 840 840 839 839 837 836 835
818 820 822 824 826 828 830 832 835 836 837 838 838 839 839 841 842 843 843 843 842 843 843 844 844 845 845 845 844 844 843 843 842 842 842 841 841 841 840 839 838 836
819 822 823 825 827 829 831 834 836 836 837 837 838 839 840 841 843 843 843 842 842 843 843 844 845 845 845 845 845 845 844 843 843 843 843 843 843 842 841 841 839 838
820 822 824 826 828 830 832 834 836 836 837 838 838 839 840 841 843 842 842 842 842 843 844 845 845 845 846 845 845 845 844 844 844 844 844 844 844 844 843 842 841 839
820 822 825 827 829 831 833 835 835 836 837 838 838 839 840 841 842 842 842 842 843 844 845 845 846 846 846 846 845 845 845 845 845 846 846 846 845 845 844 843 842 840
821 823 825 828 830 832 833 835 835 836 838 838 838 839 840 840 841 842 843 843 844 845 845 846 846 846 846 846 846 846 846 846 847 847 847 847 847 846 845 844 842 841
821 824 826 828 830 832 834 835 836 837 838 838 838 839 839 840 841 842 843 844 845 845 846 846 846 846 846 847 847 847 847 848 848 848 849 848 848 847 845 844 843 842
821 824 826 829 831 832 834 835 837 838 838 838 838 839 840 840 841 843 844 844 845 846 846 846 846 847 847 848 848 848 848 849 849 849 850 849 848 847 846 845 844 843
821 824 826 829 831 832 834 836 837 838 838 838 838 839 840 841 841 843 844 845 846 846 847 847 847 847 848 848 848 849 849 849 850 850 850 850 849 847 847 846 845 844
821 824 826 829 831 832 835 837 837 838 838 838 839 839 840 841 842 843 845 846 847 847 847 848 848 848 849 849 849 849 849 850 850 851 850 849 849 848 847 846 846 845
820 823 826 828 830 833 835 836 837 837 838 839 839 840 840 841 843 844 845 847 847 848 848 849 849 850 850 850 850 850 850 850 851 851 850 849 848 848 847 847 846 845
820 823 825 827 830 832 834 835 836 837 838 839 840 840 841 842 843 845 846 848 848 849 849 850 850 851 851 851 850 850 850 851 851 851 850 849 848 848 848 847 846 845
819 821 824 827 829 831 833 834 836 837 838 839 840 841 842 842 844 846 847 849 849 850 851 851 852 853 853 852 851 851 851 851 851 851 850 850 849 848 848 847 846 846
820 820 823 826 828 830 832 833 835 836 837 839 840 841 842 843 845 847 848 850 851 851 852 852 853 854 854 853 852 853 853 852 851 851 850 850 850 849 849 848 847 846
823 821 822 825 827 829 831 832 834 836 837 839 840 842 843 844 846 848 850 851 852 852 853 853 854 854 854 854 854 854 854 853 852 852 851 851 851 851 850 849 848 848
824 823 823 824 827 829 830 832 834 836 837 839 840 842 844 845 847 849 851 852 853 854 854 854 854 855 854 854 854 854 854 854 853 853 853 853 853 852 851 851 850 850
822 823 823 824 826 828 830 832 834 836 838 839 841 843 845 846 848 850 851 852 854 855 855 855 855 855 854 855 855 855 855 854 854 854 854 854 854 854 853 852 852 852
821 822 823 824 826 828 830 832 834 836 838 840 841 843 845 847 848 850 852 853 854 856 856 856 855 854 854 855 855 855 855 854 854 855 855 855 855 855 854 854 854 854
820 822 823 825 826 828 830 832 834 837 839 841 842 844 845 847 849 850 852 853 855 856 856 856 855 854 854 855 855 855 855 855 855 855 855 856 856 856 856 856 856 856
819 821 823 825 827 828 831 833 835 837 839 841 843 844 846 848 849 850 852 854 855 856 856 856 855 854 854 855 855 855 855 855 856 856 856 857 857 857 858 857 858 858
819 821 823 825 827 829 831 833 835 837 840 842 843 845 846 848 849 850 852 854 856 856 856 856 855 854 855 855 855 856 856 856 856 856 857 858 858 859 859 859 859 859